Location: Doughton Park
(36.4224°N, 81.1835°W)
Time: 08:17:29
(UTC-05:00)

ISS - All Passes

Search period start: 21 January 2017 00:00
Search period end: 31 January 2017 00:00
Orbit: 399 x 410 km, 51.6° (Epoch: 21 January)

Date Brightness Start Highest point End Pass type
(mag) Time Alt. Az. Time Alt. Az. Time Alt. Az.
21 Jan - 04:12:11 10° NNW 04:14:47 22° NNE 04:17:22 10° E visible
21 Jan - 05:48:19 10° WNW 05:51:20 36° SW 05:54:20 10° SSE visible
21 Jan - 20:50:29 10° S 20:53:03 21° SE 20:55:36 10° ENE night (unlit)
21 Jan - 22:26:26 10° W 22:29:23 31° NW 22:32:20 10° NNE night (unlit)
22 Jan - 03:20:29 10° N 03:22:20 14° NNE 03:24:11 10° ENE night (unlit)
22 Jan - 04:55:55 10° NW 04:59:11 81° SW 05:02:25 10° SE visible
22 Jan - 20:00:19 10° SE 20:01:00 10° SE 20:01:41 10° ESE night (unlit)
22 Jan - 21:33:51 10° WSW 21:37:04 61° NW 21:40:18 10° NE night (unlit)
22 Jan - 23:13:01 10° NW 23:14:06 11° NNW 23:15:10 10° N night (unlit)
23 Jan - 04:03:46 10° NW 04:06:55 47° NE 04:10:04 10° ESE night (unlit)
23 Jan - 05:41:23 10° W 05:43:04 14° SW 05:44:46 10° SSW visible
23 Jan - 20:41:37 10° SW 20:44:50 61° SE 20:48:03 10° NE night (unlit)
23 Jan - 22:19:24 10° WNW 22:21:34 16° NNW 22:23:45 10° NNE night (unlit)
24 Jan - 03:11:46 10° NNW 03:14:34 26° NNE 03:17:21 10° E night (unlit)
24 Jan - 04:48:11 10° WNW 04:51:00 27° SW 04:53:48 10° SSE night (unlit)
24 Jan - 19:49:50 10° SSW 19:52:40 28° SE 19:55:31 10° ENE visible
24 Jan - 21:26:18 10° W 21:29:07 26° NNW 21:31:56 10° NNE night (unlit)
25 Jan - 02:19:57 10° NNW 02:22:06 16° NNE 02:24:15 10° ENE night (unlit)
25 Jan - 03:55:38 10° NW 03:58:50 60° SW 04:02:02 10° SE night (unlit)
25 Jan - 18:58:50 10° SSE 19:00:35 14° SE 19:02:19 10° E visible
25 Jan - 20:33:34 10° WSW 20:36:45 47° NW 20:39:54 10° NE visible
26 Jan - 01:28:30 10° N 01:29:33 11° NNE 01:30:36 10° NE night (unlit)
26 Jan - 03:03:21 10° NW 03:06:34 61° NE 03:09:47 10° ESE night (unlit)
26 Jan - 04:42:02 10° WSW 04:42:38 10° SW 04:43:14 10° SW night (unlit)
26 Jan - 19:41:10 10° SW 19:44:26 81° SE 19:47:42 10° NE visible
26 Jan - 21:19:23 10° WNW 21:21:16 14° NNW 21:23:08 10° N night (unlit)
27 Jan - 02:11:15 10° NNW 02:14:13 31° NE 02:17:09 10° E night (unlit)
27 Jan - 03:48:00 10° WNW 03:50:33 21° SW 03:53:05 10° S night (unlit)
27 Jan - 18:49:11 10° SSW 18:52:12 36° SE 18:55:14 10° ENE visible
27 Jan - 20:26:07 10° W 20:28:44 22° NNW 20:31:22 10° NNE visible
28 Jan - 01:19:20 10° NNW 01:21:45 19° NNE 01:24:10 10° ENE night (unlit)
28 Jan - 02:55:15 10° WNW 02:58:22 45° SW 03:01:29 10° SSE night (unlit)
28 Jan - 17:57:46 10° S 18:00:02 18° SE 18:02:18 10° E daylight
28 Jan - 19:33:13 10° WSW 19:36:18 38° NW 19:39:23 10° NE visible
29 Jan - 00:27:39 10° N 00:29:11 13° NNE 00:30:44 10° NE night (unlit)
29 Jan - 02:02:52 10° NW 02:06:06 80° NE 02:09:20 10° SE night (unlit)
29 Jan - 18:40:40 10° SW 18:43:56 78° NW 18:47:12 10° NE visible
29 Jan - 20:19:21 10° NW 20:20:51 13° NNW 20:22:23 10° N visible
30 Jan - 01:10:39 10° NW 01:13:45 38° NE 01:16:48 10° ESE night (unlit)
30 Jan - 02:47:48 10° W 02:49:58 17° SW 02:52:08 10° S night (unlit)
30 Jan - 17:48:28 10° SSW 17:51:37 47° SE 17:54:47 10° ENE daylight
30 Jan - 19:25:51 10° WNW 19:28:16 19° NNW 19:30:41 10° NNE visible
